GW2134 Weather Reports


time (UTC)temp
F
wind
direction
speed
knots
gust
knots
rain 1hr
in
rain 24hr
in
rain mn
in
humidity
%
barometer
mb
20260901054553 66 0 0.0 1.7 0.00 0.00 0.00 75 1021.9
20260901053104 65 0 0.0 0.0 0.00 0.00 0.00 76 1021.8
20260901051603 65 0 0.0 0.0 0.00 0.00 0.00 76 1021.9
20260901050100 65 0 0.0 1.7 0.00 0.00 0.00 76 1021.7
20260901044602 65 0 0.0 0.0 0.00 0.00 0.00 77 1021.7
20260901043105 66 0 0.0 0.9 0.00 0.00 0.00 76 1021.7
20260901041557 66 0 0.0 0.9 0.00 0.00 0.00 74 1021.6
20260901034603 66 0 0.0 0.9 0.00 0.00 0.00 73 1021.5
20260901033100 66 0 0.9 2.6 0.00 0.00 0.00 70 1021.5
20260901031600 66 0 0.0 2.6 0.00 0.00 0.00 71 1021.4
20260901030058 66 0 0.0 1.7 0.00 0.00 0.00 72 1021.4
20260901024554 66 18 0.0 1.7 0.00 0.00 0.00 72 1021.4
20260901023102 67 0 0.0 2.6 0.00 0.00 0.00 75 1021.3
20260901021601 67 0 0.9 2.6 0.00 0.00 0.00 74 1021.1
20260901014559 67 360 1.7 4.3 0.00 0.00 0.00 77 1021.1
20260901013118 67 360 2.6 5.2 0.00 0.00 0.00 74 1021.2
20260901011556 67 0 0.9 2.6 0.00 0.00 0.00 73 1021.3
20260901010110 68 360 2.6 5.2 0.00 0.00 0.00 73 1021.2
20260901004557 68 360 0.9 3.5 0.00 0.00 0.00 67 1021.1
20260901003054 68 360 0.0 2.6 0.00 0.00 0.00 68 1021.0
20260901001601 68 0 0.0 1.7 0.00 0.00 0.00 66 1020.9
20260831234630 68 0 0.0 0.9 0.00 0.00 0.00 69 1021.0
20260831233100 69 0 0.0 1.7 0.00 0.00 0.00 68 1021.1
20260831231554 69 0 0.0 0.9 0.00 0.00 0.00 67 1021.1
20260831230052 70 360 0.9 2.6 0.00 0.00 0.00 68 1021.0
20260831224602 70 360 0.9 3.5 0.00 0.00 0.00 67 1021.0
20260831223104 70 0 0.0 1.7 0.00 0.00 0.00 62 1020.9
20260831221556 70 360 1.7 3.5 0.00 0.00 0.00 61 1020.8
20260831220104 70 360 1.7 4.3 0.00 0.00 0.00 63 1020.6
20260831214623 71 360 0.0 2.6 0.00 0.00 0.00 65 1020.6
20260831213107 70 360 0.0 2.6 0.00 0.00 0.00 58 1020.5
20260831211605 71 0 0.0 2.6 0.00 0.00 0.00 58 1020.3
20260831210104 71 360 0.9 2.6 0.00 0.00 0.00 63 1020.2
20260831204608 71 360 1.7 3.5 0.00 0.00 0.00 62 1020.1
20260831203103 72 360 0.9 4.3 0.00 0.00 0.00 65 1019.9
20260831201622 72 360 1.7 3.5 0.00 0.00 0.00 64 1019.8
20260831200106 72 360 0.9 3.5 0.00 0.00 0.00 64 1019.6
20260831194607 72 360 1.7 5.2 0.00 0.00 0.00 62 1019.7
20260831193131 72 331 1.7 4.3 0.00 0.00 0.00 64 1019.6
20260831191602 73 330 2.6 5.2 0.00 0.00 0.00 64 1019.7
20260831190104 73 344 0.9 4.3 0.00 0.00 0.00 66 1019.7
20260831184553 73 330 1.7 4.3 0.00 0.00 0.00 63 1019.5
20260831183105 73 336 2.6 4.3 0.00 0.00 0.00 67 1019.4
20260831181612 74 326 2.6 5.2 0.00 0.00 0.00 65 1019.3
20260831180108 75 17 0.9 2.6 0.00 0.00 0.00 66 1019.1
20260831174559 75 325 1.7 3.5 0.00 0.00 0.00 65 1019.1
20260831173105 76 360 2.6 5.2 0.00 0.00 0.00 66 1019.0
20260831171604 77 329 1.7 3.5 0.00 0.00 0.00 65 1019.1
20260831170119 79 329 1.7 3.5 0.00 0.00 0.00 63 1019.2
20260831164611 80 0 0.0 1.7 0.00 0.00 0.00 60 1019.2
20260831163103 81 0 0.0 0.9 0.00 0.00 0.00 59 1019.2
20260831161611 82 0 0.0 3.5 0.00 0.00 0.00 58 1019.3
20260831160110 83 150 0.9 3.5 0.00 0.00 0.00 56 1019.4
20260831154624 84 101 0.9 2.6 0.00 0.00 0.00 56 1019.5
20260831153059 85 124 0.9 4.3 0.00 0.00 0.00 55 1019.6
20260831151553 84 118 0.9 6.1 0.00 0.00 0.00 56 1019.6
20260831150106 84 112 2.6 7.8 0.00 0.00 0.00 56 1019.6
20260831144604 84 115 0.9 7.8 0.00 0.00 0.00 55 1019.6
20260831143055 84 92 2.6 7.8 0.00 0.00 0.00 56 1019.7
20260831141606 84 96 2.6 8.7 0.00 0.00 0.00 57 1019.6
20260831140054 84 11 2.6 9.6 0.00 0.00 0.00 56 1019.7
20260831134604 84 147 4.3 9.6 0.00 0.00 0.00 54 1019.7
20260831133101 84 140 4.3 12.2 0.00 0.00 0.00 54 1019.7
20260831131603 84 125 5.2 9.6 0.00 0.00 0.00 52 1019.8
20260831130109 85 92 3.5 9.6 0.00 0.00 0.00 51 1019.9
20260831124600 85 132 4.3 9.6 0.00 0.00 0.00 47 1019.9
20260831123058 85 143 2.6 9.6 0.00 0.00 0.00 48 1019.9
20260831121559 85 132 4.3 10.4 0.00 0.00 0.00 46 1019.9
20260831120057 86 128 3.5 9.6 0.00 0.00 0.00 46 1020.0
20260831114606 86 128 4.3 9.6 0.00 0.00 0.00 45 1019.9
20260831113057 86 0 1.7 7.8 0.00 0.00 0.00 42 1019.9
20260831111605 86 108 1.7 7.0 0.00 0.00 0.00 42 1020.0
20260831110058 86 163 3.5 9.6 0.00 0.00 0.00 41 1020.1
20260831104556 86 220 0.9 6.1 0.00 0.00 0.00 42 1020.0
20260831103053 85 140 0.9 6.1 0.00 0.00 0.00 40 1020.1
20260831101552 84 109 1.7 7.0 0.00 0.00 0.00 41 1020.2
20260831100116 85 138 1.7 6.1 0.00 0.00 0.00 42 1020.2
20260831094603 85 312 1.7 7.0 0.00 0.00 0.00 41 1020.3
20260831093121 85 17 0.9 4.3 0.00 0.00 0.00 42 1020.4
20260831091605 84 0 0.9 3.5 0.00 0.00 0.00 44 1020.4
20260831090131 82 0 0.0 2.6 0.00 0.00 0.00 46 1020.5
20260831084604 81 103 0.9 3.5 0.00 0.00 0.00 46 1020.6
20260831083112 80 0 0.9 3.5 0.00 0.00 0.00 47 1020.4
20260831081603 79 123 0.0 2.6 0.00 0.00 0.00 50 1020.3
20260831080129 78 0 0.9 2.6 0.00 0.00 0.00 52 1020.2
20260831074555 77 5 0.0 2.6 0.00 0.00 0.00 53 1020.2
20260831073102 76 0 0.0 1.7 0.00 0.00 0.00 55 1020.0
20260831071604 75 0 0.0 1.7 0.00 0.00 0.00 58 1020.0
20260831070104 73 0 0.0 1.7 0.00 0.00 0.00 61 1020.0
20260831064554 71 0 0.0 0.0 0.00 0.00 0.00 65 1019.9
20260831063108 70 0 0.0 1.7 0.00 0.00 0.00 66 1019.9
20260831061603 68 0 0.0 0.9 0.00 0.00 0.00 67 1020.0
20260831060105 67 323 0.0 1.7 0.00 0.00 0.00 70 1019.9